Location: Ingoldesthorpe
(52.8667°N, 0.5167°E)
Time: 21:10:03
(UTC+00:00)

ATLAS 3B R/B - Pass Details

Date: 19 May 2025
Orbit: 935 x 1258 km, 63.8° (Epoch: 18 June)

Event Time Altitude Azimuth Distance (km) Brightness Sun altitude
Exits shadow 23:17:16 19° 199° (SSW) 2,473 4.1 -16.7°
Maximum altitude 23:22:44 61° 126° (SE) 1,367 3.0 -16.8°
Drops below altitude 10° 23:30:26 10° 48° (NE) 3,240 5.7 -17.0°
Sets 23:33:18 0° 46° (NE) 4,219 6.4 -17.0°
